GAOFEN 7

Last updated on Wed Dec 04 2019 00:02:03 GMT+0000 (Coordinated Universal Time)

1 44703U 19072A 19336.91317093 -.00013519 00000-0 -60381-3 0 9994 2 44703 97.4928 49.5702 0010755 147.0938 345.4770 15.21189916 4531
UTC large
Height (km)
Speed (km/s)
/
Latitude / Longitude
Inclination (degrees)
Orbital Period (minutes)
Azimuth
Elevation
Range (km)
Doppler Factor

Next 0 passes for location: London (51.5072 / 0.1276)

Sorry there are no passes over London.